Location: General Nathan Twining Observatory
(34.5931°N, 106.8201°W)
Time: 04:52:35
(UTC-06:00)

ADEOS II - Visible Passes

Search period start: 24 July 2017 00:00
Search period end: 03 August 2017 00:00
Orbit: 800 x 801 km, 98.4° (Epoch: 23 July)

Date Brightness Start Highest point End Pass type
(mag) Time Alt. Az. Time Alt. Az. Time Alt. Az.
24 Jul 2.4 04:35:43 10° NNE 04:40:57 66° ESE 04:45:50 12° S visible
25 Jul 3.4 04:09:40 10° NNE 04:14:29 35° E 04:19:03 11° SSE visible
26 Jul 4.3 03:44:10 10° NE 03:47:54 19° E 03:51:37 10° SE visible
26 Jul 2.6 05:22:48 10° N 05:27:44 42° WNW 05:32:39 10° SW visible
27 Jul 2.0 04:56:11 10° N 05:01:26 77° WNW 05:06:25 11° SSW visible
28 Jul 2.6 04:29:51 10° NNE 04:35:03 58° E 04:39:38 13° S visible
29 Jul 3.6 04:03:54 10° NE 04:08:33 31° E 04:12:51 11° SSE visible
29 Jul 3.2 05:43:45 10° NNW 05:48:06 27° WNW 05:52:26 10° SW visible
30 Jul 4.4 03:38:34 10° NE 03:41:58 17° E 03:45:19 10° SE visible
30 Jul 2.4 05:16:50 10° N 05:21:52 48° WNW 05:26:53 10° SW visible
31 Jul 2.0 04:50:16 10° NNE 04:55:33 87° WNW 05:00:13 13° SSW visible
01 Aug 2.8 04:24:01 10° NNE 04:29:08 51° E 04:33:25 14° S visible
02 Aug 3.8 03:58:09 10° NE 04:02:37 28° E 04:06:38 12° SSE visible
02 Aug 3.0 05:37:42 10° N 05:42:15 30° WNW 05:46:45 10° SW visible
